GFSNIL_sfc_temp_000.txt.gz
Temp
87 90 90 89 91 90 90 90 89 85 85 85 85 84 83 84 84 83 82 80 80 84
87 87 90 90 89 90 88 91 87 85 85 85 85 83 82 84 82 82 82 82 81 82
88 87 88 89 86 87 88 86 85 85 85 84 83 83 81 83 83 81 83 84 82 81
89 90 88 88 84 85 84 84 83 83 83 83 82 82 80 80 82 81 80 81 80 79
90 89 88 85 84 82 80 82 80 81 79 81 83 82 80 80 83 81 80 80 80 80
89 88 87 80 76 79 80 76 76 76 76 77 79 81 81 81 81 81 81 81 81 81
88 88 84 81 73 75 77 77 72 74 74 78 81 81 81 82 81 81 81 81 80 80
88 84 81 78 75 75 75 75 72 74 74 77 79 79 80 81 81 79 79 81 81 82
83 81 75 76 76 78 77 77 75 75 75 76 79 72 69 76 81 80 79 79 79 78
81 78 75 76 77 77 77 76 79 78 77 75 77 67 67 68 80 80 78 78 76 75
79 77 76 76 77 77 78 76 78 77 76 77 79 65 63 66 78 77 78 77 75 71
79 76 75 75 75 78 78 78 79 78 77 76 78 60 60 65 80 78 76 70 71 68
78 77 75 76 76 76 77 77 78 77 78 74 76 60 58 64 82 74 70 67 67 62
79 78 77 76 75 76 76 74 76 76 77 74 70 75 56 56 74 74 70 68 70 74

GFSNIL_sfc_temp_003.txt.gz
Temp
89 91 92 90 93 92 92 92 90 87 87 85 86 85 84 84 84 84 83 81 80 83
89 89 91 91 90 93 91 92 89 88 85 85 85 85 83 83 83 82 82 82 81 82
90 89 90 91 90 90 90 88 88 86 85 85 85 84 82 83 83 81 83 84 83 82
91 91 90 90 90 89 89 86 86 84 84 84 84 83 81 81 83 81 81 81 81 81
91 91 90 89 90 87 86 86 84 83 82 83 83 78 81 81 83 81 80 81 80 80
91 91 89 88 88 85 85 83 84 83 81 81 82 82 82 82 81 81 82 82 81 81
91 90 90 88 86 84 83 82 82 82 81 81 82 82 82 82 81 81 82 82 82 82
91 90 89 86 84 82 82 81 81 81 81 82 83 85 82 82 81 81 80 81 82 81
89 87 86 83 81 79 82 82 82 79 80 79 84 73 71 78 80 80 80 76 79 75
88 84 80 81 79 78 79 81 81 78 79 79 80 67 67 69 80 76 79 77 76 79
86 81 78 77 77 78 80 80 81 79 81 80 81 65 64 67 74 75 79 80 79 78
84 80 77 76 78 79 79 81 78 78 76 78 78 62 61 67 75 73 77 79 80 76
83 79 78 77 77 78 80 80 81 79 76 75 78 59 59 65 72 72 80 78 76 64
82 78 79 78 78 77 77 75 73 73 79 78 77 74 57 57 75 79 78 78 72 76

GFSNIL_sfc_temp_006.txt.gz
Temp
83 85 85 86 87 86 84 85 82 82 82 82 79 79 78 78 77 77 76 76 75 75
83 84 85 85 85 86 84 87 83 83 82 81 80 79 78 76 76 78 77 76 75 74
85 85 85 85 84 84 85 85 82 82 81 81 78 79 77 77 78 75 76 76 75 74
86 86 85 86 85 84 85 83 82 81 80 79 79 79 76 76 76 75 75 75 75 75
86 86 85 84 86 85 84 83 81 81 80 80 79 78 76 76 77 76 74 75 74 75
86 85 85 84 85 84 84 82 82 81 79 78 78 77 76 76 76 76 76 75 74 74
86 86 86 85 84 85 84 82 82 80 79 78 78 77 77 77 76 76 77 77 76 76
87 87 86 85 84 84 83 83 82 80 79 78 79 81 77 77 76 75 76 75 77 76
87 85 85 84 83 83 82 81 80 78 77 75 80 74 72 76 77 75 75 72 75 76
86 85 84 84 83 82 80 80 78 77 76 74 76 67 68 71 77 75 74 72 73 74
86 84 84 83 82 81 79 78 78 76 74 75 76 66 65 69 72 73 74 73 73 70
87 84 83 81 79 79 77 76 76 75 75 74 75 63 62 65 69 71 71 73 73 72
85 82 79 78 77 76 78 77 79 77 75 71 75 61 59 64 74 72 71 71 72 64
83 80 78 76 76 76 77 77 75 73 73 74 74 69 58 59 73 73 72 72 70 73

GFSNIL_sfc_temp_009.txt.gz
Temp
78 82 79 77 77 79 79 79 77 78 77 74 75 72 71 69 69 70 69 69 68 67
80 81 79 76 77 77 80 79 78 77 76 75 73 72 70 69 69 69 69 68 68 68
81 82 80 76 78 78 77 78 78 76 77 74 74 72 70 69 69 68 68 69 68 68
81 81 81 78 79 78 78 76 78 78 75 75 74 73 70 69 69 69 68 69 68 68
82 81 81 81 79 78 79 78 78 77 77 75 75 73 72 70 72 68 68 68 67 67
82 81 81 81 80 79 81 78 77 78 76 75 74 73 73 72 69 69 69 69 69 69
82 82 82 82 81 79 79 77 77 77 76 75 75 74 73 71 68 68 69 69 72 71
83 83 83 82 81 81 78 77 77 74 74 73 74 76 71 72 68 68 69 70 72 72
83 82 81 81 80 79 79 76 76 75 74 71 76 71 70 72 71 69 68 70 71 72
83 81 81 80 79 77 78 76 75 74 74 71 70 67 68 70 71 70 70 71 69 71
83 82 81 80 79 78 78 76 74 74 72 70 69 65 65 68 70 69 70 70 69 67
83 81 81 80 78 77 76 74 75 72 70 68 69 62 61 64 66 68 68 69 68 67
84 82 79 79 76 74 73 72 72 71 69 67 70 61 61 63 68 67 66 65 69 65
81 79 76 74 72 72 72 72 72 71 70 71 71 65 59 59 69 68 65 63 63 65

GFSNIL_sfc_temp_012.txt.gz
Temp
78 79 77 73 73 76 78 79 77 76 74 71 71 70 68 67 67 67 66 66 65 65
78 79 78 73 76 77 78 79 76 76 74 73 72 71 68 67 67 67 66 65 65 65
79 79 78 75 75 76 77 77 76 75 75 74 72 71 68 66 67 66 66 66 65 64
79 80 79 76 76 76 77 77 76 75 75 74 72 71 69 67 67 66 66 66 66 66
79 79 79 78 78 76 77 77 77 76 75 74 74 72 70 68 70 66 66 66 65 65
79 78 78 79 80 77 77 76 76 76 75 75 73 73 72 70 68 68 67 67 66 66
79 79 79 80 79 79 78 75 75 76 76 75 74 72 72 70 69 68 68 67 67 67
80 80 79 79 79 79 78 77 76 75 75 75 73 73 71 71 69 69 66 66 67 67
80 80 79 79 78 78 75 75 74 74 73 71 73 70 68 71 69 68 68 66 66 68
80 79 78 79 78 76 77 73 73 72 72 71 72 66 66 67 71 67 68 66 66 68
80 79 79 78 77 76 77 74 74 72 73 71 71 64 64 66 69 68 67 67 67 68
80 79 78 77 77 76 76 75 74 73 71 71 70 61 61 64 68 69 66 66 67 68
81 80 78 78 77 76 75 75 73 71 71 68 69 59 60 63 67 66 65 66 67 63
82 80 78 76 76 75 74 73 72 69 67 68 68 66 59 58 69 67 66 66 64 66

GFSNIL_sfc_temp_015.txt.gz
Temp
78 77 77 74 75 74 74 74 75 75 74 71 70 69 67 65 65 65 65 64 63 63
77 77 76 72 75 75 75 76 74 75 74 72 71 69 67 65 65 65 64 64 64 63
77 77 77 74 74 75 75 75 74 74 74 72 70 69 67 65 65 65 64 64 63 62
78 78 77 75 75 75 75 75 75 75 74 72 71 70 68 67 65 65 65 65 64 63
79 78 77 76 76 76 75 74 75 74 74 72 72 71 69 68 69 66 64 64 64 64
78 77 77 77 78 75 76 74 75 74 73 72 71 71 71 70 69 68 67 65 64 64
78 77 78 79 78 78 76 74 74 74 74 73 72 71 70 69 68 69 67 67 67 65
79 79 78 78 78 78 75 75 75 74 74 74 73 72 70 69 68 67 67 66 66 65
79 78 77 77 76 76 75 75 73 73 73 71 73 69 68 70 68 67 67 65 65 66
79 77 77 77 76 75 74 74 71 72 72 71 71 67 66 67 68 67 67 68 66 66
78 78 77 76 76 75 75 74 71 72 72 71 71 63 63 66 68 68 68 68 67 65
79 78 77 76 76 77 76 73 72 72 71 71 71 61 61 64 68 67 67 68 65 65
80 78 77 77 77 77 76 74 73 73 72 70 71 59 59 63 68 67 65 63 64 63
80 79 79 76 76 75 75 75 74 73 73 72 69 60 57 60 67 66 63 63 63 65

GFSNIL_sfc_temp_018.txt.gz
Temp
76 76 76 75 75 75 75 76 75 75 75 74 73 72 71 70 69 69 69 68 68 69
76 76 76 76 75 76 75 76 75 75 74 74 73 72 70 70 69 69 69 68 68 69
76 76 77 76 74 74 75 76 75 75 75 74 73 72 70 69 69 68 68 69 67 67
77 77 77 76 75 75 75 75 75 75 74 73 72 71 70 69 69 69 68 68 67 67
77 77 76 75 76 75 74 75 75 75 74 74 73 72 71 70 71 69 68 68 67 68
77 77 76 76 77 75 75 74 75 75 74 73 73 72 72 71 71 70 70 69 68 68
77 77 77 77 76 75 75 74 74 74 74 74 74 73 72 71 70 71 70 69 69 68
78 78 77 76 76 76 75 75 75 74 74 74 74 74 71 71 70 70 69 68 69 68
77 76 76 76 76 75 74 75 74 74 74 73 75 70 67 71 70 70 69 68 67 69
77 76 76 76 75 74 74 74 73 74 74 73 74 66 66 68 71 70 69 69 68 67
76 76 76 75 75 75 75 74 73 74 73 73 73 64 63 66 72 70 69 69 69 69
77 76 76 75 75 76 75 74 73 73 72 72 72 62 61 65 71 69 68 69 69 69
77 77 76 76 76 76 76 74 75 73 73 71 73 59 59 65 70 67 67 68 68 63
78 77 77 76 77 76 75 75 74 73 73 73 72 66 57 60 69 69 67 66 65 67

GFSNIL_sfc_temp_021.txt.gz
Temp
81 84 84 84 86 85 86 86 86 84 84 84 83 83 82 82 82 80 80 78 79 82
81 81 83 83 83 86 85 88 85 85 84 84 83 82 81 83 79 79 79 79 78 80
82 82 83 83 82 84 85 84 85 84 84 84 83 82 80 82 80 78 80 81 77 77
83 83 83 83 83 83 84 83 83 83 83 83 83 82 80 81 81 78 78 78 77 77
83 83 83 82 83 83 82 83 84 84 83 83 83 82 80 80 81 78 78 78 77 77
83 83 82 82 83 83 83 82 84 84 83 83 83 81 81 81 81 79 80 79 77 76
82 83 83 83 82 83 83 82 83 83 83 83 83 82 82 81 81 80 80 80 79 78
83 83 83 82 82 83 82 82 83 82 83 83 84 85 82 81 81 80 79 79 79 78
82 82 81 81 81 81 81 82 82 82 82 82 85 75 70 78 81 80 79 78 77 78
82 81 81 81 81 80 80 81 80 81 82 81 82 68 67 69 83 81 80 79 78 77
81 81 81 80 80 80 81 80 81 81 81 81 82 66 65 68 79 81 81 79 79 77
82 81 81 80 79 81 81 81 81 82 80 80 81 64 63 67 79 80 79 79 79 78
83 82 81 81 80 81 81 81 83 82 81 76 81 63 60 66 83 79 77 76 77 65
83 81 82 81 81 81 81 81 80 80 81 81 79 79 59 59 80 81 74 75 73 74

GFSNIL_sfc_temp_024.txt.gz
Temp
86 89 90 90 92 92 94 94 92 90 89 89 89 89 88 88 88 87 85 83 84 90
86 87 89 89 90 93 92 95 92 91 88 89 89 88 87 89 86 87 85 85 83 86
88 87 88 90 88 90 92 91 92 89 89 89 89 88 86 88 87 85 87 88 84 83
89 89 88 89 89 89 90 90 89 89 88 89 88 88 86 87 89 84 84 85 85 82
89 89 89 88 89 89 88 90 89 89 88 88 89 88 86 85 88 85 84 84 83 83
89 89 89 88 88 89 88 88 90 89 88 88 88 88 87 87 87 87 85 85 84 83
89 89 90 89 88 89 88 88 88 89 89 89 89 89 89 87 87 87 87 86 86 85
90 90 89 88 88 88 88 88 88 88 89 89 90 92 89 88 87 87 87 87 87 86
89 88 87 87 87 87 87 87 87 87 88 88 92 80 74 83 89 87 86 85 86 86
88 87 86 87 86 85 85 87 86 87 87 87 88 73 71 73 89 88 87 86 86 86
86 87 87 86 85 85 86 85 85 86 86 87 88 70 67 71 85 88 88 87 86 85
88 86 86 85 85 86 86 86 86 86 85 85 86 67 64 69 85 86 87 87 87 86
88 87 86 86 85 86 86 86 88 87 87 81 86 68 62 69 88 85 88 86 85 69
89 87 87 86 86 85 85 87 85 86 87 87 84 85 59 61 85 91 88 90 87 86

GFSNIL_sfc_temp_027.txt.gz
Temp
88 91 91 91 94 94 95 96 95 90 91 90 90 89 90 90 89 88 87 85 84 90
87 88 91 90 90 95 92 97 96 93 90 91 90 90 89 90 88 89 87 86 85 86
89 88 89 91 90 90 93 93 95 92 92 90 90 90 88 90 89 87 89 89 86 85
90 90 89 90 91 90 92 92 91 91 90 90 89 89 88 88 90 87 86 87 87 84
90 90 90 89 90 90 90 91 91 91 90 90 90 89 88 87 90 89 86 86 86 85
91 91 90 89 90 90 89 90 92 90 89 89 89 89 89 88 88 89 88 87 86 85
91 91 92 91 89 90 90 89 89 90 90 89 90 90 90 88 88 88 89 88 88 86
92 92 91 90 90 90 90 89 89 89 90 90 91 93 89 89 88 87 87 88 88 88
92 90 90 89 89 89 88 88 88 88 88 89 93 81 75 84 89 88 87 86 88 88
92 90 89 90 89 87 87 88 87 88 88 88 89 74 72 73 90 89 88 87 87 88
91 90 89 88 87 87 88 87 87 87 88 87 89 73 68 72 87 88 88 88 87 87
92 90 89 87 86 88 87 87 87 88 87 86 87 69 66 69 87 87 86 89 88 88
92 90 89 88 87 88 88 88 90 88 88 82 87 70 64 68 90 86 88 86 87 72
91 89 89 88 88 87 87 88 86 87 88 88 86 85 62 61 86 90 89 90 89 91

GFSNIL_sfc_temp_030.txt.gz
Temp
83 85 85 86 88 87 88 87 86 85 85 85 84 84 84 83 83 82 81 81 79 78
82 84 84 84 86 88 86 91 88 85 85 84 85 84 83 84 82 83 81 80 80 79
83 84 85 85 84 85 87 86 89 85 85 85 85 85 83 83 83 81 83 82 79 78
85 84 84 85 85 86 86 87 86 86 85 84 84 84 83 82 83 82 81 82 80 78
85 85 85 84 85 86 86 86 86 86 85 85 84 84 83 82 84 82 81 81 81 79
86 85 85 84 85 86 85 86 87 87 85 84 85 83 84 83 83 83 83 82 80 80
86 86 86 86 85 85 86 84 86 86 85 86 85 85 85 84 83 83 84 83 82 81
87 87 86 85 85 85 85 86 85 85 86 85 86 88 84 84 83 83 82 83 84 83
87 86 86 85 85 85 85 85 85 84 85 85 88 79 75 82 84 83 82 81 83 83
87 86 85 86 85 84 84 85 84 84 85 84 85 74 72 74 86 84 83 82 82 84
88 86 86 85 85 84 85 84 84 84 84 84 85 72 68 71 83 84 84 83 83 82
89 87 86 85 84 85 85 84 85 85 84 83 84 68 66 68 82 83 83 84 84 83
88 87 86 86 84 85 85 85 86 85 85 80 84 70 63 67 84 82 84 83 83 72
88 87 86 86 85 85 85 85 84 84 85 85 83 83 62 60 82 84 84 84 84 85

GFSNIL_sfc_temp_033.txt.gz
Temp
77 79 81 76 78 76 80 80 81 80 80 78 78 77 76 76 75 75 74 74 72 71
80 77 81 81 77 80 78 82 81 82 79 79 79 78 76 78 75 75 74 73 73 71
81 81 80 80 80 78 81 79 81 81 81 80 80 79 78 76 76 75 75 75 73 72
80 81 81 80 79 78 78 79 77 80 80 80 80 79 78 76 75 75 74 75 74 73
81 80 81 80 79 82 77 80 79 80 80 80 80 80 78 77 80 76 75 75 74 74
81 81 79 81 82 77 81 80 82 78 80 80 80 79 80 79 79 77 76 77 76 76
81 81 82 81 81 82 81 81 81 81 80 81 81 81 81 80 79 79 79 76 78 78
83 83 83 82 82 81 82 82 82 81 82 81 82 83 81 81 80 79 79 79 78 79
83 83 82 82 82 81 81 82 82 81 82 81 83 76 73 79 81 80 79 78 79 80
84 82 82 82 82 81 81 82 81 82 81 82 82 71 70 72 83 81 81 80 80 80
84 82 82 82 82 82 83 82 82 81 82 81 82 70 68 69 81 82 82 81 81 81
84 83 82 82 82 83 83 83 83 82 82 81 82 66 65 67 78 81 82 82 82 81
86 84 83 83 83 84 84 83 84 83 83 78 82 68 62 66 80 80 81 82 83 71
82 83 83 83 84 84 83 83 82 82 83 83 81 80 61 60 78 80 81 81 82 83

GFSNIL_sfc_temp_036.txt.gz
Temp
79 79 79 74 74 76 77 77 78 78 77 77 76 75 73 73 73 73 72 72 70 69
77 79 78 77 75 74 75 79 78 79 78 77 77 75 74 73 73 74 72 71 72 70
78 78 80 78 74 74 75 77 79 78 79 77 77 77 74 74 73 73 73 72 71 70
79 79 77 78 77 77 75 76 77 78 78 78 77 77 75 74 75 74 74 73 72 71
79 79 79 77 77 78 77 76 77 76 78 78 78 78 77 75 77 75 73 74 73 73
79 78 78 78 79 78 77 77 75 77 77 77 78 78 78 77 77 75 75 75 74 75
78 78 78 79 79 79 77 77 77 76 77 77 78 79 79 78 77 77 76 76 76 76
79 80 79 78 78 79 79 77 79 79 77 78 79 80 79 79 78 77 77 76 76 77
79 79 79 79 78 78 78 78 78 78 78 77 80 74 72 78 79 79 77 76 76 77
80 79 79 79 79 78 77 78 78 79 79 79 80 70 69 71 81 79 79 78 78 78
80 79 79 79 79 79 79 78 78 78 79 79 80 68 66 69 79 80 80 79 79 79
81 80 79 79 79 80 80 80 80 80 79 79 80 65 64 66 76 78 79 81 80 80
82 81 80 80 80 81 81 81 81 81 81 76 79 65 63 66 79 78 79 80 81 70
83 82 83 82 82 82 81 81 81 80 81 81 77 77 61 60 77 79 79 79 80 82

GFSNIL_sfc_temp_039.txt.gz
Temp
77 76 76 74 73 73 75 75 76 75 75 74 74 73 72 71 71 71 70 71 68 68
77 77 76 73 75 75 74 76 74 76 76 74 74 73 73 71 71 72 71 70 70 68
78 77 77 75 73 73 73 75 75 75 76 75 74 73 73 72 72 71 71 71 70 69
78 77 78 76 74 75 72 73 74 74 75 76 75 74 73 73 73 71 71 72 71 70
78 77 77 77 75 75 73 73 75 75 75 76 76 75 74 73 75 73 72 72 72 72
78 77 76 76 77 74 73 74 74 75 75 75 75 75 75 75 75 74 75 74 73 74
77 77 77 78 77 76 75 75 75 76 76 76 76 76 76 76 75 75 75 75 75 75
77 78 77 77 76 77 75 76 77 76 76 76 76 78 76 76 76 75 75 74 75 76
77 77 76 76 75 75 76 75 76 76 76 75 78 72 71 76 77 76 75 75 74 75
77 76 76 76 75 75 75 76 75 75 77 76 77 69 68 70 79 77 77 76 77 76
77 76 76 76 75 75 75 75 75 75 76 76 78 68 66 68 76 78 78 78 78 78
78 77 76 75 76 76 76 76 76 77 76 76 77 65 64 66 75 76 77 79 78 78
79 78 77 77 77 78 78 78 78 77 77 73 77 65 62 64 76 75 76 78 79 68
80 79 80 79 79 78 78 78 77 77 78 78 75 76 60 60 76 77 77 77 77 79

GFSNIL_sfc_temp_042.txt.gz
Temp
75 74 75 73 72 73 73 74 76 75 76 76 76 76 75 75 75 75 74 74 72 73
75 74 74 73 74 73 73 76 76 76 76 76 76 76 75 75 75 75 75 74 74 73
75 75 75 74 73 72 73 75 75 75 76 76 76 76 75 75 75 74 75 75 73 73
76 76 76 75 74 73 73 75 75 75 75 76 76 76 75 75 75 74 75 75 74 74
76 76 76 75 74 74 73 75 75 75 75 75 76 76 75 75 77 75 75 75 74 75
76 76 75 76 75 74 75 74 76 76 75 75 76 75 76 76 76 76 76 76 75 76
77 76 77 76 76 74 75 75 75 75 75 76 76 76 76 76 76 76 77 77 77 77
77 77 76 76 76 75 75 75 75 75 76 76 77 79 76 77 76 76 76 76 77 78
76 76 75 75 75 75 75 75 75 75 75 75 79 72 70 75 77 77 76 75 76 77
76 75 75 75 74 74 75 75 75 75 75 75 76 68 68 70 79 77 77 77 77 77
75 75 75 75 74 74 75 74 74 75 75 75 76 67 65 68 76 78 78 78 78 77
76 75 75 74 74 75 75 74 74 75 75 75 76 64 64 66 75 77 77 79 79 78
77 76 75 75 75 76 76 76 77 76 76 72 75 64 62 64 77 75 77 77 78 68
77 76 77 76 77 76 76 77 76 76 77 77 75 75 61 59 75 77 77 77 78 80

GFSNIL_sfc_temp_045.txt.gz
Temp
81 84 84 83 86 85 87 87 87 85 85 85 85 85 84 85 85 84 84 83 83 86
81 82 83 83 83 86 84 87 86 86 85 85 85 84 84 85 84 83 83 84 83 84
82 82 83 83 82 83 84 84 86 85 85 85 85 84 83 85 85 83 85 86 83 83
82 83 83 82 82 83 84 83 84 84 85 84 84 84 83 83 85 83 83 83 83 82
82 83 82 82 83 83 82 84 84 84 84 84 85 85 83 83 85 83 83 84 83 83
83 82 82 82 83 83 83 83 85 84 83 83 84 84 84 83 84 84 84 85 84 84
83 83 83 83 82 82 83 83 83 83 84 85 85 85 85 84 84 84 85 85 85 85
83 83 83 82 82 82 83 83 83 83 84 84 86 88 85 85 84 83 84 85 85 85
82 82 81 82 81 81 82 82 83 83 83 83 87 76 72 80 85 84 83 83 84 85
81 81 81 82 81 81 81 82 81 82 83 83 84 70 68 70 85 86 85 84 84 86
81 81 81 81 80 80 82 81 81 82 82 82 84 67 66 68 81 84 85 85 85 85
82 81 81 80 80 81 81 81 81 82 82 81 82 65 64 67 82 83 83 85 85 85
82 81 81 81 80 82 82 81 84 82 82 77 82 66 62 66 83 82 84 84 83 70
83 82 82 81 82 81 81 83 81 82 82 82 80 80 60 59 80 84 85 85 86 87

GFSNIL_sfc_temp_048.txt.gz
Temp
85 90 90 89 92 92 94 95 93 90 90 90 90 90 89 88 89 89 89 87 87 93
86 86 90 90 89 93 91 95 93 92 90 90 90 90 89 91 89 89 88 89 88 89
87 87 88 89 88 89 92 90 92 90 90 90 90 89 88 90 89 88 91 92 89 88
88 89 88 88 88 88 89 90 88 89 89 90 90 89 88 88 90 88 88 89 88 87
89 89 89 87 88 88 87 89 89 89 88 89 90 90 88 88 90 88 87 88 88 87
89 89 89 88 88 88 87 87 90 89 88 88 90 89 89 89 89 89 89 89 88 88
89 89 89 89 88 88 88 87 88 89 89 89 90 90 90 90 89 89 90 90 90 90
89 90 89 88 88 88 88 88 88 88 89 89 91 94 90 90 90 89 89 90 91 91
88 88 88 87 87 87 87 87 87 88 88 88 93 79 74 83 90 89 88 88 89 90
87 86 86 87 86 86 86 87 86 87 88 88 89 73 70 72 90 91 89 89 89 91
87 86 86 86 86 86 87 86 86 86 87 88 89 70 67 69 87 88 89 90 90 89
88 86 86 85 85 86 86 86 87 87 87 86 87 67 65 69 86 87 87 89 89 90
88 87 86 86 85 86 87 87 90 88 88 82 87 68 62 69 89 88 90 89 88 72
88 87 87 86 86 86 86 88 86 88 89 88 86 85 61 60 85 90 91 92 93 94

GFSNIL_sfc_temp_051.txt.gz
Temp
87 91 91 91 94 94 96 97 92 91 91 91 91 90 90 90 90 90 89 88 87 92
86 87 90 89 90 94 93 98 95 93 90 91 91 91 90 91 88 89 89 89 88 89
87 87 89 90 90 90 94 93 94 93 92 91 91 91 90 91 91 89 91 92 90 89
89 89 89 90 91 90 92 93 91 91 91 90 90 90 89 89 92 88 89 90 91 89
89 89 90 89 90 91 89 91 91 90 90 90 91 91 89 88 91 89 88 89 89 89
90 90 90 89 90 90 89 89 91 90 89 89 90 90 90 90 89 90 90 90 89 89
90 91 91 91 89 90 89 89 89 90 90 90 90 91 91 91 90 90 91 91 91 91
90 90 90 89 89 89 89 89 89 89 90 91 91 94 90 91 91 89 89 91 91 91
89 89 89 88 88 88 89 89 89 89 89 89 93 80 75 85 91 90 89 89 90 91
89 88 88 88 88 87 87 88 87 88 89 89 90 73 71 74 92 91 90 89 89 91
90 88 88 88 87 86 88 87 87 88 88 89 90 72 67 71 88 89 90 91 91 89
91 89 88 87 87 88 88 88 88 89 88 87 88 69 66 70 88 88 87 90 90 90
91 89 87 87 87 88 88 89 92 90 90 83 88 68 64 70 91 88 90 88 87 74
90 89 88 87 88 88 88 89 87 89 90 89 87 87 62 60 87 91 92 93 94 96

GFSNIL_sfc_temp_054.txt.gz
Temp
83 84 84 85 86 86 86 87 86 86 85 85 85 85 83 83 83 84 83 83 83 82
82 83 84 84 85 87 86 90 86 86 86 86 85 84 83 83 82 84 83 82 83 82
82 82 83 82 82 84 87 87 84 85 85 86 86 85 84 84 83 83 83 84 82 82
83 84 83 84 82 84 85 87 87 87 86 85 85 85 84 83 84 82 82 84 84 82
84 83 83 82 85 85 85 86 87 86 86 85 85 85 84 83 85 83 83 83 83 84
84 84 84 82 84 85 84 85 87 86 84 84 84 84 84 84 83 83 84 84 83 83
84 85 85 84 83 85 85 84 85 85 85 85 85 85 86 85 84 84 85 85 84 84
85 85 84 84 84 84 84 85 85 84 85 85 86 89 84 85 84 83 84 84 85 85
85 84 84 83 83 83 83 84 84 84 84 84 89 79 75 82 85 84 83 82 84 85
85 84 83 84 83 83 82 84 83 84 84 84 85 74 72 74 86 84 84 83 83 85
85 84 84 83 83 82 84 83 83 83 84 84 85 72 68 71 82 84 84 84 84 83
87 84 84 82 82 83 84 83 83 84 83 83 84 68 68 68 80 83 82 83 84 84
87 86 83 83 82 84 84 84 86 85 85 80 84 68 66 69 85 82 83 82 82 72
87 86 85 84 84 84 84 85 83 84 85 85 83 83 63 62 83 85 84 84 85 86

GFSNIL_sfc_temp_057.txt.gz
Temp
75 78 75 76 77 83 82 81 78 79 78 78 78 78 76 76 75 76 75 76 75 74
75 78 75 76 77 78 79 82 79 81 80 79 78 78 76 75 75 76 75 75 75 75
79 77 76 76 76 77 79 79 79 80 80 79 78 78 76 76 76 76 76 77 76 75
79 78 76 76 76 76 78 78 80 82 78 79 78 77 77 76 76 75 75 77 75 76
79 79 79 75 76 77 76 77 78 81 81 79 78 78 77 76 79 77 76 76 76 77
79 79 79 80 74 76 78 78 79 80 80 80 80 77 77 77 77 77 77 77 76 76
80 80 80 80 80 75 80 77 77 78 79 78 79 78 78 78 77 76 77 78 78 78
81 82 81 80 79 80 79 82 80 78 77 79 79 82 77 78 79 78 77 77 78 78
81 81 81 80 79 79 80 80 81 81 79 77 83 75 73 78 77 79 79 78 77 78
82 80 80 80 80 78 79 81 78 80 80 79 80 72 71 73 82 80 78 79 79 79
81 81 80 80 80 80 80 80 81 80 80 80 81 70 69 71 80 81 81 78 79 80
82 81 80 79 80 81 81 80 81 81 80 79 81 68 67 69 74 79 79 79 80 80
84 82 81 81 81 82 82 82 81 81 81 77 81 68 65 67 80 76 78 78 75 69
84 83 82 82 82 82 81 82 81 81 82 81 79 80 63 62 81 81 78 79 80 80

GFSNIL_sfc_temp_060.txt.gz
Temp
74 74 73 73 78 80 80 79 77 77 76 75 76 75 74 73 73 74 73 74 73 72
74 74 72 74 74 76 79 79 77 78 77 76 75 75 74 73 73 74 73 73 73 72
76 74 73 73 74 75 76 77 76 77 77 76 75 75 74 73 74 73 73 74 73 72
78 76 72 74 74 75 74 76 77 78 78 77 76 75 74 73 74 73 73 74 74 74
78 78 76 74 76 74 74 74 76 77 78 78 77 76 74 73 76 73 73 74 74 74
78 77 78 78 72 73 75 73 75 77 78 78 78 76 75 75 74 74 74 75 74 74
78 78 78 79 78 72 73 77 74 76 78 78 78 78 77 76 74 74 74 75 75 75
79 79 79 79 79 77 73 77 77 76 77 78 79 80 78 77 75 74 74 74 75 75
79 78 78 77 78 77 77 76 76 74 77 77 81 74 71 76 76 75 74 74 74 75
79 78 77 77 77 77 77 78 77 77 75 76 78 70 69 71 79 76 76 76 77 75
79 78 78 78 77 77 77 77 78 78 79 78 78 68 67 70 78 78 77 77 77 76
80 78 78 77 77 78 78 77 78 79 77 78 79 66 65 67 76 77 77 78 78 78
78 80 79 78 79 79 80 79 79 79 80 75 79 67 64 66 78 75 76 78 77 68
75 80 81 80 80 80 79 80 79 78 79 80 77 79 62 61 78 79 77 77 78 78

GFSNIL_sfc_temp_063.txt.gz
Temp
72 74 72 72 72 74 75 75 75 74 74 74 74 74 72 72 71 73 72 72 72 70
72 72 72 72 72 73 75 77 75 74 74 74 74 73 72 71 72 72 72 72 71 71
73 72 71 72 72 72 74 75 74 74 74 74 74 74 72 71 72 71 71 72 72 71
74 72 71 71 72 73 72 74 74 74 74 73 74 73 72 72 72 72 72 72 72 72
77 75 72 71 71 72 73 73 72 74 74 74 74 73 73 72 74 72 72 72 72 72
77 76 76 74 71 71 72 72 73 73 73 74 75 74 74 73 73 73 73 73 72 73
76 77 77 77 75 71 72 72 72 73 74 74 75 76 75 74 72 72 73 73 73 74
77 77 77 77 77 73 71 73 73 74 74 75 76 77 74 74 74 73 72 72 73 74
77 77 76 76 76 76 73 72 71 73 75 74 78 73 71 75 75 74 73 72 72 73
74 76 75 76 75 75 76 76 74 74 75 75 76 69 69 70 79 76 74 74 74 73
77 75 75 75 74 75 76 75 75 75 75 74 76 68 66 69 76 78 76 75 74 74
78 76 76 75 75 75 76 75 75 76 76 75 76 65 65 66 74 76 76 76 75 75
74 77 76 76 76 77 76 76 76 75 76 74 77 65 63 65 76 75 76 77 74 67
71 69 75 74 73 75 75 75 75 75 76 77 75 76 61 60 76 78 77 76 77 77

GFSNIL_sfc_temp_066.txt.gz
Temp
72 73 73 73 73 73 74 76 76 76 76 75 76 75 74 75 75 76 76 76 75 75
71 72 72 73 73 74 75 77 77 75 75 76 76 75 75 75 74 75 76 76 76 76
73 72 73 73 73 73 75 76 76 76 76 75 76 75 75 75 75 75 76 76 75 75
73 72 72 73 74 74 74 75 75 76 76 75 75 76 75 75 75 75 75 75 75 76
74 73 72 72 73 74 74 74 75 75 76 75 75 75 75 75 77 75 75 75 75 76
74 73 73 73 72 73 73 73 75 75 75 75 76 76 76 76 76 76 76 76 76 76
74 74 75 74 73 73 73 73 74 75 75 76 76 76 77 76 76 76 77 77 77 77
75 75 75 74 73 73 73 74 74 74 76 76 77 78 76 77 76 76 76 77 77 77
75 75 74 73 73 73 73 73 72 73 75 75 79 71 70 74 77 76 76 75 76 77
75 74 74 74 73 73 72 73 72 72 73 74 76 68 68 69 78 77 76 76 76 77
72 73 74 74 73 73 74 73 72 73 73 73 75 67 66 68 76 77 77 77 77 77
74 73 73 73 73 74 74 73 74 74 73 73 74 64 64 67 76 76 76 77 77 77
72 75 74 72 73 73 74 75 76 75 74 71 74 64 62 65 77 75 77 77 76 66
70 70 75 74 73 73 73 73 74 74 75 74 73 74 60 60 75 77 77 77 78 78

GFSNIL_sfc_temp_069.txt.gz
Temp
81 84 85 84 87 86 87 88 86 85 84 84 84 84 83 85 86 85 86 83 84 88
81 81 84 84 84 87 86 88 86 86 85 84 84 84 83 86 84 84 84 85 84 87
81 81 83 83 82 84 86 85 86 85 86 85 84 84 83 84 84 83 85 87 84 84
82 82 82 83 83 84 85 84 84 84 85 85 84 84 82 83 84 83 84 84 84 83
83 82 82 81 83 84 83 85 84 84 84 85 85 84 83 83 85 83 83 84 83 84
82 82 82 82 83 83 83 84 86 85 83 84 85 84 84 84 84 84 85 85 84 84
78 80 83 83 82 82 82 82 83 84 84 85 85 85 86 85 84 85 85 85 85 85
82 80 78 79 82 82 82 82 83 83 84 85 86 88 85 85 85 84 84 85 85 86
82 82 81 80 79 81 81 81 82 82 82 83 88 76 72 81 86 84 84 84 84 86
81 80 80 81 80 80 80 81 80 81 82 82 84 70 68 70 88 86 85 84 85 86
80 80 80 80 79 79 81 80 80 81 81 81 83 68 66 68 83 86 86 86 85 84
81 79 79 79 79 80 80 80 80 81 81 80 81 65 64 67 83 84 84 86 86 86
76 76 79 79 79 80 80 80 82 81 81 76 81 66 62 66 84 84 85 84 84 69
75 75 77 77 79 79 79 80 80 80 81 81 79 79 61 60 81 85 85 85 87 88

GFSNIL_sfc_temp_072.txt.gz
Temp
86 90 90 90 93 93 94 94 92 89 90 90 90 90 89 91 92 91 91 88 89 95
86 86 90 89 90 93 92 95 92 91 90 90 89 89 88 92 88 90 89 90 89 91
88 87 88 89 87 89 92 91 92 90 90 90 89 88 88 90 89 88 91 93 89 88
89 89 88 88 88 88 90 90 90 89 88 89 89 89 87 89 90 87 88 89 89 88
88 89 90 88 88 89 88 90 90 88 89 88 90 90 88 88 91 88 88 88 88 88
86 87 88 89 89 88 88 88 91 90 87 88 88 89 89 89 89 89 89 89 88 88
85 86 89 89 88 88 88 87 88 89 90 89 91 90 89 89 89 90 90 90 90 90
87 87 87 88 88 88 88 88 88 88 89 90 91 94 90 90 89 89 89 90 90 90
88 87 86 85 85 86 87 87 87 87 88 88 93 79 74 83 91 90 89 88 90 90
81 83 85 86 85 84 83 86 85 86 87 87 88 72 69 73 91 91 90 89 89 91
81 82 82 82 82 84 85 84 85 86 86 86 88 71 68 69 87 88 90 91 90 89
72 78 80 82 81 80 82 84 85 86 85 85 86 67 66 70 87 88 87 90 91 91
73 72 75 79 79 80 79 81 85 86 87 80 85 68 63 69 89 87 89 88 88 73
73 73 70 74 79 77 79 80 81 81 86 86 84 83 61 60 84 89 90 91 93 94

GFSNIL_sfc_temp_075.txt.gz
Temp
88 91 91 90 90 92 82 80 90 90 89 90 88 90 89 91 91 91 91 90 89 88
88 87 91 92 91 93 88 78 93 91 90 91 91 90 90 90 89 87 90 90 90 90
89 88 89 91 89 92 86 93 80 91 91 91 91 90 89 89 90 89 91 93 89 89
90 91 89 89 90 89 91 91 91 90 91 91 90 90 88 87 91 88 88 89 91 88
91 91 91 89 90 90 89 91 91 91 90 90 90 91 89 88 92 89 88 89 88 89
92 91 91 90 90 90 89 89 91 90 89 89 90 90 90 89 89 91 90 90 89 89
90 90 89 91 91 90 90 89 89 90 91 90 90 91 89 88 87 90 91 91 91 91
91 89 86 89 90 90 90 89 89 89 90 91 92 94 91 91 90 87 89 91 91 92
85 82 86 88 88 89 89 89 89 88 89 89 93 81 74 85 92 90 89 88 90 92
77 82 81 83 82 85 86 88 87 88 88 88 89 75 70 74 92 91 91 89 90 92
70 75 78 80 80 81 82 82 86 87 88 88 89 73 69 70 88 89 89 90 90 89
68 70 73 72 77 82 83 84 84 86 86 86 87 68 68 70 88 88 87 89 89 90
67 69 71 73 72 75 79 85 88 86 87 81 87 71 64 68 89 87 90 87 86 74
71 69 70 75 76 74 75 78 81 83 84 84 84 86 62 61 84 88 91 91 93 93

GFSNIL_sfc_temp_078.txt.gz
Temp
84 81 83 75 81 78 75 77 85 85 85 86 85 86 85 84 83 84 84 84 82 83
83 83 86 85 86 81 76 81 82 84 85 85 83 85 83 80 82 83 82 84 83 82
85 85 85 85 85 88 76 75 75 73 81 85 83 83 83 82 80 80 81 84 83 83
86 86 85 85 87 87 89 76 73 72 72 79 85 85 83 81 81 82 82 83 83 82
86 86 86 85 86 87 85 86 78 74 72 80 83 82 83 82 84 81 82 83 82 83
87 85 86 84 86 86 85 85 87 86 85 85 84 84 82 83 83 83 83 84 83 83
87 87 88 85 84 84 85 85 85 85 84 84 85 85 84 82 82 82 84 84 85 84
71 84 88 86 84 85 84 85 85 85 84 84 86 89 85 84 83 80 81 83 84 85
72 75 79 82 83 85 84 84 83 84 84 84 90 80 75 82 85 83 82 81 83 85
69 70 72 78 82 83 82 83 82 83 84 83 84 74 70 72 86 85 83 82 82 85
67 69 71 74 71 74 79 80 80 81 83 83 85 72 70 69 80 83 83 84 82 83
67 67 69 70 71 71 73 77 78 79 81 82 83 69 67 70 81 82 82 84 84 83
71 69 67 66 70 72 74 74 76 78 80 77 81 70 65 67 81 81 83 82 82 73
70 69 70 70 69 70 69 72 74 74 77 79 79 80 63 62 80 83 83 83 84 86

GFSNIL_sfc_temp_081.txt.gz
Temp
75 72 72 73 72 72 71 74 77 77 77 77 78 77 76 76 76 76 75 75 76 75
75 74 73 72 72 74 73 77 74 75 77 77 77 78 76 74 75 75 76 74 76 75
76 76 75 74 76 74 73 73 74 75 75 76 77 79 76 75 76 75 79 77 75 76
76 77 76 76 77 74 73 71 72 73 73 73 76 77 76 75 76 75 74 76 76 76
77 78 76 76 77 78 74 72 71 71 70 72 75 76 75 75 78 76 75 76 75 76
74 76 75 76 78 78 74 72 72 72 72 74 75 75 76 76 76 76 76 76 75 76
68 69 72 76 78 77 78 77 76 77 76 76 77 78 77 77 76 76 77 77 77 77
69 68 69 71 74 76 77 78 78 78 77 78 79 82 78 77 77 75 76 76 78 78
67 69 70 71 71 75 75 77 77 76 77 77 83 77 74 77 77 77 76 75 75 78
64 65 67 70 69 68 72 75 76 76 77 75 77 72 70 71 80 78 78 76 77 78
63 63 64 67 67 67 69 70 74 74 75 75 77 70 70 69 73 75 76 78 78 78
66 67 65 63 64 67 67 69 70 73 74 74 75 68 65 66 71 74 75 77 76 77
65 65 64 65 65 66 67 67 68 70 71 71 74 68 63 64 71 69 75 75 76 69
64 62 64 64 64 63 63 64 66 67 69 72 73 74 64 61 70 76 71 77 79 80

GFSNIL_sfc_temp_084.txt.gz
Temp
72 70 69 71 71 71 71 73 75 75 75 75 76 75 74 73 74 74 73 73 72 73
73 72 72 71 71 71 72 75 75 76 75 75 75 75 74 72 73 73 73 73 73 73
73 73 73 71 71 71 72 75 73 74 75 75 75 75 74 73 73 72 73 73 72 73
73 74 73 72 73 73 72 72 73 72 73 73 74 75 74 72 73 74 72 72 73 74
71 72 73 73 74 72 72 72 72 72 71 72 73 73 73 73 76 74 73 74 72 73
69 71 71 72 74 73 73 72 72 71 71 70 72 72 74 74 74 74 74 74 73 73
67 67 68 70 71 72 72 72 71 71 71 72 73 74 74 75 74 74 75 75 74 74
68 68 69 69 69 69 71 73 72 72 73 74 75 78 75 75 74 73 74 74 75 75
65 67 67 69 69 69 69 72 73 73 74 75 79 73 71 75 74 73 74 73 74 75
62 62 63 67 68 67 68 69 71 72 72 73 74 70 69 70 74 73 74 74 74 75
62 62 63 64 64 65 67 68 68 70 71 72 73 67 66 67 70 73 74 75 75 75
63 63 64 62 63 63 65 64 66 67 69 69 71 64 62 64 69 69 72 75 75 76
63 62 62 61 60 62 63 64 65 66 67 66 69 65 62 63 69 69 70 71 73 67
59 60 61 61 61 60 60 61 63 64 66 67 67 68 61 60 68 72 71 69 73 77

GFSNIL_sfc_temp_090.txt.gz
Temp
71 71 71 72 71 72 72 74 76 76 76 75 76 76 75 76 77 76 76 77 76 76
71 71 71 71 73 72 73 75 75 75 75 75 76 76 75 75 75 76 76 76 76 76
72 72 72 72 72 72 73 74 74 75 75 74 75 75 74 74 75 75 75 76 76 75
72 73 73 72 73 72 73 73 72 73 75 74 74 75 74 74 75 74 74 75 75 76
72 73 73 71 73 74 73 73 72 73 74 74 75 75 75 74 75 74 74 75 74 75
68 69 69 71 72 73 74 73 72 72 71 72 73 73 74 75 74 74 74 75 75 75
68 69 69 69 69 70 72 73 73 73 72 72 73 73 74 75 74 74 74 74 75 75
68 68 69 69 70 70 70 70 72 73 73 73 73 76 73 74 74 75 75 75 76 76
66 65 66 68 68 68 68 69 70 70 72 72 74 68 68 72 75 75 75 74 76 77
63 63 63 65 65 66 65 66 67 68 69 69 71 64 63 65 71 74 75 75 75 77
61 61 62 63 62 63 64 65 65 66 67 68 69 62 61 63 69 71 74 75 76 76
60 60 60 59 60 60 61 62 63 65 65 66 66 57 58 60 68 71 72 73 74 75
59 58 57 58 57 59 59 61 63 64 62 62 63 56 56 60 63 65 68 72 73 65
54 56 55 57 58 58 59 58 58 58 59 60 59 57 55 55 57 56 62 66 68 70

GFSNIL_sfc_temp_093.txt.gz
Temp
81 84 85 83 84 84 82 82 85 84 85 84 84 84 84 86 88 86 87 84 85 89
81 81 83 81 82 85 83 86 84 85 85 84 84 84 83 86 84 84 85 85 85 88
81 81 82 81 81 82 84 82 82 83 84 83 84 84 82 84 84 83 86 87 84 84
82 83 80 82 82 81 81 81 81 81 82 83 82 83 80 81 83 82 83 83 83 84
79 82 80 80 81 81 81 81 81 81 82 81 84 82 82 82 84 82 82 83 82 83
71 78 79 79 81 81 81 81 81 80 80 81 81 81 82 82 82 83 84 84 83 84
70 73 76 78 78 79 80 81 81 82 81 80 81 82 82 82 82 82 83 84 83 83
69 73 75 76 76 77 78 79 81 81 81 81 81 81 80 81 82 82 82 85 85 85
70 67 67 73 74 75 75 75 77 78 76 77 77 64 65 72 81 82 82 82 82 84
66 67 65 67 69 72 72 74 73 74 76 75 75 61 61 65 80 81 81 81 82 83
63 65 67 68 66 67 69 71 72 73 74 71 68 59 59 62 78 79 80 81 81 81
62 63 64 63 66 67 69 70 71 71 71 66 63 57 58 68 75 76 76 77 79 78
59 59 59 61 64 66 68 69 71 69 67 60 60 56 56 63 73 70 73 73 70 62
61 57 58 62 63 63 64 66 66 65 65 63 62 58 54 55 64 66 69 70 72 72

GFSNIL_sfc_temp_096.txt.gz
Temp
86 89 86 89 89 84 89 90 91 89 90 90 90 90 89 91 92 91 91 89 89 95
85 85 89 86 87 86 86 93 90 90 89 90 90 89 89 92 89 90 89 90 89 91
87 87 88 88 85 86 90 88 88 89 90 89 89 88 86 90 89 88 91 93 90 88
86 89 88 87 88 87 88 87 85 86 88 88 87 88 86 86 88 87 88 89 88 87
85 86 88 87 88 87 86 86 86 87 86 86 89 88 87 86 89 86 87 88 88 87
75 81 84 85 87 88 87 86 89 88 85 87 88 87 86 87 87 88 88 88 88 87
71 74 77 83 85 87 87 86 88 88 88 88 88 88 88 88 87 87 88 89 89 88
73 73 75 78 81 85 86 87 86 87 88 88 89 91 86 87 87 86 86 88 89 90
75 74 73 75 78 80 81 82 84 84 85 86 90 63 65 74 87 87 86 86 87 88
70 72 70 67 68 75 78 80 80 82 82 75 75 60 61 65 84 87 86 86 86 88
66 68 69 69 68 70 74 79 80 80 78 74 69 58 59 63 81 86 86 86 85 85
65 66 69 71 73 76 77 77 78 79 73 71 67 56 57 67 84 83 83 79 72 75
65 65 65 67 66 70 72 75 79 75 72 63 68 54 55 62 83 79 84 79 73 61
61 62 64 65 65 68 73 73 72 72 71 69 65 61 54 54 62 63 76 82 82 81

GFSNIL_sfc_temp_099.txt.gz
Temp
88 90 90 90 86 92 78 93 88 90 90 90 91 91 91 92 92 92 92 90 89 93
86 88 85 87 89 90 90 82 92 90 90 91 91 91 91 91 91 83 90 91 90 91
88 88 89 89 87 88 80 82 87 90 90 90 90 90 89 90 91 89 90 93 90 90
89 86 89 89 89 89 90 88 88 88 89 90 89 90 88 87 88 88 88 89 88 89
87 89 84 88 89 90 88 89 88 88 87 88 88 89 87 87 89 88 87 88 88 88
84 84 82 82 88 90 89 87 89 89 86 86 87 88 88 86 87 89 89 89 89 89
73 74 75 77 77 80 87 87 88 89 89 89 89 84 89 88 88 88 90 90 90 89
72 73 75 75 77 78 81 86 88 88 88 90 91 79 75 89 89 87 87 89 89 90
78 78 77 79 76 76 78 80 85 85 85 84 75 63 65 71 82 87 88 86 88 89
76 77 77 78 76 72 75 79 82 82 77 73 71 60 61 65 81 84 84 84 84 87
70 71 72 74 75 70 74 77 79 79 77 75 69 58 59 63 78 84 85 84 83 82
69 71 72 72 75 75 74 77 79 76 76 73 67 56 57 65 85 83 81 75 75 80
67 67 69 72 73 75 77 77 77 73 75 64 69 55 56 61 78 81 79 81 72 60
64 65 67 67 68 68 72 75 74 74 72 67 62 60 55 55 71 68 67 67 70 74

GFSNIL_sfc_temp_102.txt.gz
Temp
85 85 83 82 77 73 72 72 79 83 84 86 86 87 86 85 84 84 83 83 82 82
86 86 84 84 87 82 73 73 72 71 84 85 83 86 83 84 83 76 75 79 83 82
84 84 87 87 84 82 71 70 71 73 80 85 85 85 86 84 82 80 78 83 82 81
83 85 85 86 87 86 74 72 71 75 83 82 85 86 82 83 83 81 80 82 82 81
75 76 82 78 74 85 84 82 82 84 81 82 83 83 82 82 84 82 81 83 83 83
79 79 80 79 73 73 82 84 86 84 80 80 81 81 80 81 81 81 82 83 82 83
74 76 75 78 79 79 79 79 80 82 80 80 83 82 81 81 80 81 84 84 85 84
76 73 73 74 74 75 75 76 78 79 81 72 71 68 69 72 77 79 82 83 82 84
76 76 76 75 74 74 74 75 76 76 77 71 67 63 64 67 77 80 80 80 81 82
75 77 77 77 75 75 73 73 73 72 70 65 63 60 61 65 75 80 79 79 79 80
75 74 75 75 75 74 74 71 72 71 70 68 63 58 59 63 73 78 79 78 77 76
70 71 71 72 73 75 72 70 72 74 70 67 61 56 57 64 74 78 76 71 66 71
67 68 69 70 70 72 75 75 74 72 70 65 62 56 56 58 72 71 72 69 65 60
63 65 67 68 69 70 70 73 72 71 67 64 62 59 56 56 65 65 68 69 68 68

GFSNIL_sfc_temp_105.txt.gz
Temp
76 75 73 74 71 71 70 72 73 74 75 77 77 78 76 77 77 75 74 74 74 72
75 75 75 75 72 72 72 73 73 73 72 74 78 80 77 76 75 75 75 74 74 74
76 76 76 74 70 70 71 71 73 72 72 73 78 78 77 76 75 74 74 74 75 75
75 75 76 75 75 72 70 70 70 72 72 76 78 78 77 76 76 76 74 75 75 75
73 72 73 72 73 73 72 72 72 74 75 76 77 76 76 76 78 75 74 76 73 75
70 72 73 73 72 74 75 75 75 76 75 76 75 75 76 76 76 76 76 76 75 76
70 70 72 73 73 73 73 74 76 76 76 75 71 70 70 72 73 74 77 76 76 76
71 70 71 71 71 72 72 73 75 75 70 69 67 65 65 67 70 75 74 74 77 74
71 71 71 71 70 71 72 71 73 70 68 65 63 61 63 64 66 72 75 73 74 72
71 70 71 71 71 69 69 70 70 65 61 60 60 60 61 64 66 70 72 72 72 71
70 70 69 69 69 69 69 69 67 65 63 60 61 59 59 63 69 69 69 67 69 64
69 66 67 66 67 68 68 68 67 67 62 59 59 57 58 63 67 68 64 60 64 61
65 65 63 64 65 65 67 68 68 67 64 60 58 56 57 60 63 63 65 62 60 61
63 63 63 62 64 64 65 66 65 63 60 59 58 57 56 56 58 57 60 62 62 62

GFSNIL_sfc_temp_108.txt.gz
Temp
73 72 71 71 71 71 70 70 73 73 74 75 75 75 75 73 74 73 72 73 71 71
73 73 72 73 71 71 72 73 72 74 73 74 75 75 75 73 74 73 72 71 72 72
72 74 73 71 71 72 72 72 72 72 72 74 74 75 74 73 74 74 72 72 72 72
73 73 73 71 71 71 70 70 71 71 72 73 74 75 74 73 74 74 73 73 72 73
73 73 73 72 72 70 69 69 69 70 72 73 75 74 74 74 75 74 73 74 73 73
71 71 72 71 71 71 72 72 71 72 73 74 74 73 73 73 73 73 74 73 72 73
70 70 71 71 70 71 72 71 71 72 73 70 68 68 69 70 71 73 74 74 74 73
69 70 70 70 70 71 71 71 71 69 68 66 65 65 64 67 68 71 74 74 74 70
69 69 69 70 71 70 71 70 70 67 65 63 63 62 63 65 66 68 71 72 72 68
69 69 69 70 70 68 69 69 65 60 59 60 61 61 62 65 67 68 70 69 69 68
69 68 68 68 67 67 67 66 62 60 59 62 61 59 60 66 69 68 64 65 63 60
69 68 66 66 66 66 66 65 63 62 60 61 58 57 59 65 67 63 59 60 61 60
66 65 64 64 63 64 66 66 64 61 60 60 58 57 57 60 62 61 63 59 60 60
63 63 63 62 62 63 64 64 62 62 58 58 57 56 55 56 59 58 59 59 60 60

GFSNIL_sfc_temp_111.txt.gz
Temp
72 70 70 70 69 70 70 70 72 73 73 73 73 72 72 72 72 72 71 71 71 69
71 71 71 71 71 70 71 71 72 73 73 74 74 74 73 72 72 71 71 71 71 71
71 71 72 71 71 70 71 72 71 71 72 73 73 74 73 72 72 71 71 71 70 70
71 71 71 71 71 71 71 70 70 70 70 71 72 73 73 72 72 72 71 71 71 71
71 71 71 71 71 71 69 69 69 69 69 71 72 73 73 73 74 73 72 72 71 71
71 71 70 69 70 71 70 70 70 70 71 71 72 72 72 72 73 73 73 73 72 73
71 71 71 71 70 69 70 69 71 71 71 71 69 69 69 70 71 71 73 73 73 73
71 72 71 70 70 70 70 71 71 69 68 66 66 65 64 66 67 69 71 73 73 71
70 70 70 69 69 70 70 70 70 67 65 64 64 63 63 65 65 68 71 71 70 69
68 68 68 69 69 69 69 69 64 62 61 61 61 61 62 64 67 68 69 71 69 67
68 68 68 68 67 67 67 64 59 58 60 62 62 60 62 66 68 66 66 65 65 62
68 67 67 66 65 66 64 61 58 59 58 59 60 57 59 64 62 61 60 60 61 62
67 66 65 65 65 65 64 62 61 59 59 59 58 56 57 61 63 60 60 60 60 60
64 64 64 63 64 65 63 61 59 59 57 57 57 55 55 57 58 58 59 59 59 58

GFSNIL_sfc_temp_114.txt.gz
Temp
72 72 71 72 71 71 72 72 74 74 75 75 75 74 74 75 76 75 75 75 74 74
72 72 72 72 72 71 72 73 74 75 75 75 76 76 75 75 75 75 74 75 75 75
72 73 72 73 72 72 72 72 73 73 74 74 75 75 75 75 76 74 75 75 74 74
72 72 73 72 72 72 73 73 73 72 73 73 74 75 74 74 75 74 74 75 74 75
72 72 72 72 73 72 71 72 72 73 72 72 72 75 74 74 75 74 74 75 74 75
71 71 71 72 72 72 71 72 72 71 71 72 74 75 75 74 74 75 75 76 74 75
70 71 72 72 71 71 71 71 72 72 73 74 73 73 73 72 72 73 74 75 75 76
71 72 71 70 70 71 71 71 70 71 71 70 70 69 68 70 71 71 73 74 75 74
71 70 70 70 70 70 70 70 70 69 68 68 67 63 64 66 68 70 71 73 73 70
69 69 69 69 68 68 68 69 68 66 64 64 64 61 62 65 68 70 70 71 69 68
69 68 68 69 69 69 69 67 64 61 61 63 64 59 61 65 70 68 65 65 65 63
68 68 68 68 68 67 66 63 61 62 61 61 60 57 59 65 64 62 61 61 64 62
68 68 66 66 66 67 65 62 62 61 60 59 59 56 56 63 65 62 63 62 61 59
65 65 65 65 66 66 63 62 61 60 59 58 57 57 54 56 63 64 64 63 63 62

GFSNIL_sfc_temp_117.txt.gz
Temp
81 84 84 83 82 84 84 84 84 84 83 84 84 84 83 86 87 84 86 83 84 87
81 81 83 82 82 84 82 84 82 83 83 84 84 84 83 86 84 84 84 84 83 86
83 82 82 82 81 81 81 81 81 81 82 83 83 84 82 82 84 83 85 86 82 83
81 82 81 81 82 81 80 80 79 81 82 82 82 83 82 81 83 82 83 84 82 82
80 80 81 81 81 80 80 81 81 81 80 81 81 82 82 82 84 82 82 83 82 83
79 79 79 80 79 80 80 80 81 80 79 80 81 81 82 82 82 83 83 83 83 82
79 80 80 80 79 79 79 79 79 80 80 81 82 82 81 80 80 80 81 80 83 83
78 77 79 79 79 78 78 79 79 79 78 79 79 78 77 79 80 80 80 81 80 81
74 73 76 73 76 76 75 74 77 77 70 70 73 64 65 67 77 78 79 79 81 76
72 74 72 71 72 73 71 70 73 70 68 68 67 62 62 65 76 77 76 76 79 75
69 69 71 70 70 70 70 69 68 66 65 64 62 59 60 64 74 76 73 69 71 71
70 69 68 68 69 69 70 68 64 63 64 64 63 57 59 66 70 69 65 64 65 68
68 69 69 69 68 67 67 64 62 62 65 62 65 56 57 67 77 73 73 70 68 59
64 66 67 67 67 65 63 62 61 62 63 63 63 62 55 57 74 75 74 74 73 74

GFSNIL_sfc_temp_120.txt.gz
Temp
86 85 88 88 86 88 88 89 89 89 89 89 89 89 89 91 91 91 91 88 88 93
86 85 89 89 85 88 85 86 87 88 88 89 89 89 88 91 89 89 89 90 89 90
88 87 88 88 85 88 89 86 87 87 88 88 88 88 86 90 90 88 91 92 89 87
89 89 88 88 88 86 86 87 86 86 87 87 87 88 86 87 88 87 87 88 87 86
87 87 88 86 88 87 86 86 86 87 86 86 87 88 86 85 89 87 86 87 87 87
86 85 86 86 87 87 87 86 88 87 85 86 86 86 86 84 86 86 88 88 87 87
85 86 86 86 86 86 86 86 86 86 86 86 87 87 86 85 85 86 88 87 87 86
86 86 84 84 84 85 85 86 86 85 85 85 86 88 84 85 85 85 85 86 85 86
83 83 83 84 82 83 83 84 84 84 84 82 85 64 66 69 82 83 83 83 84 82
80 82 82 81 80 78 74 77 77 81 80 76 78 62 62 65 76 83 83 82 83 80
72 74 79 73 73 72 73 73 73 74 74 74 72 59 60 63 72 78 82 79 79 78
71 73 70 69 70 70 70 70 68 65 64 63 63 58 59 65 74 74 70 68 73 70
73 72 69 69 68 69 69 66 63 61 61 60 63 58 57 64 77 75 79 76 72 61
67 67 68 69 68 66 62 60 59 59 58 59 62 64 56 57 75 78 77 80 79 80